Tracking 25723 objects as of 27-Jun-2022
HD Live streaming from Space Station
objects crossing your sky now

GORIZONT 31

Track GORIZONT 31 now!
GORIZONT 31 is classified as:


NORAD ID: 23775
Int'l Code: 1996-005A
Perigee: 35,824.5 km
Apogee: 35,972.8 km
Inclination: 14.5 °
Period: 1,441.5 minutes
Semi major axis: 42269 km
RCS: 12.5892 m2 (large)
Launch date: January 25, 1996
Source: Commonwealth of Independent States (former USSR) (CIS)
Launch site: TYURATAM MISSILE AND SPACE COMPLEX (TTMTR)

Telecommunications; telephone and television communications to the Russian republic.
aabbcc
Your satellite tracking list
Your tracking list is empty




NASA's NSSDC Master Catalog

Two Line Element Set (TLE):
1 23775U 96005A   22176.82282101 -.00000269  00000-0  00000-0 0  9994
2 23775  14.5144   5.4878 0017537 195.4327 340.5892  0.99898648 96547
Source of the keplerian elements: AFSPC